Weather History for Lee's Summit, MO

Change the Weather History Date:

Monday, November 5, 2012

  Actual Average (KMKC) Record (KMKC)
Temperature  
Mean Temperature 46 °F -  
Max Temperature 50 °F 55 °F 73 °F (2008)
Min Temperature 41 °F 39 °F 32 °F (2010)
Degree Days  
Heating Degree Days 19    
Moisture  
Dew Point 42 °F    
Average Humidity 88    
Maximum Humidity 93    
Minimum Humidity 77    
Precipitation  
Precipitation 0.06 in - - ()
Sea Level Pressure  
Sea Level Pressure 30.05 in    
Wind  
Wind Speed 7 mph (NNW)    
Max Wind Speed 15 mph    
Max Gust Speed 20 mph    
Visibility 7 miles    
Events Rain    
Averages and records for this station are not official NWS values.
T = Trace of Precipitation, MM = Missing Value Source: NWS Daily Summary

Daily Weather History Graph

Daily Weather History Graph

Search for Another Location

Airport:

Trip Planner

Search our weather history database for the weather conditions in past years. The results will help you decide how hot, cold, wet, or windy it might be!

Date:

Astronomy

Nov. 05, 2012 Rise Set
Actual Time 6:49 AM CST 5:11 PM CST
Civil Twilight 6:21 AM CST 5:39 PM CST
Nautical Twilight 5:50 AM CST 6:11 PM CST
Astronomical Twilight 5:18 AM CST 6:42 PM CST
Moon 10:50 PM CST (11/5) 12:09 PM CST (11/5)
Length of Visible Light 11h 18m
Length of Day
10h 22m
Waning Gibbous, 62% of the Moon is Illuminated
Nov 5
Waning Gibbous
Nov 6
Last Quarter
Nov 13
New
Nov 20
First Quarter
Nov 28
Full

Hourly Weather History & Observations

Time (CST) Temp. Windchill Dew Point Humidity Pressure Visibility Wind Dir Wind Speed Gust Speed Precip Events Conditions
12:53 AM 50.0 °F - 43.0 °F 77% 30.02 in 10.0 mi SSE 5.8 mph - 0.01 in Rain Light Rain
1:53 AM 48.9 °F - 43.0 °F 80% 29.99 in 10.0 mi SSE 3.5 mph - 0.01 in Rain Light Rain
2:53 AM 48.9 °F - 42.1 °F 77% 29.98 in 10.0 mi South 5.8 mph - 0.00 in   Overcast
3:53 AM 48.0 °F - 42.1 °F 80% 29.97 in 10.0 mi Calm Calm - 0.01 in   Overcast
4:53 AM 46.9 °F - 44.1 °F 90% 29.97 in 10.0 mi NNE 3.5 mph - 0.00 in   Overcast
6:03 AM 46.4 °F 45.2 °F 44.6 °F 93% 29.97 in 5.0 mi North 3.5 mph - 0.00 in Rain Light Rain
6:26 AM 46.4 °F 44.3 °F 44.6 °F 93% 29.97 in 5.0 mi NW 4.6 mph - 0.00 in   Overcast
6:35 AM 46.4 °F 42.9 °F 44.6 °F 93% 29.98 in 3.0 mi NW 6.9 mph - 0.01 in Rain Light Rain
6:53 AM 46.0 °F 42.5 °F 44.1 °F 93% 29.99 in 4.0 mi NW 6.9 mph - 0.02 in Rain Light Rain
7:28 AM 46.4 °F 42.9 °F 44.6 °F 93% 29.98 in 2.5 mi NNW 6.9 mph - 0.00 in   Overcast
7:40 AM 46.4 °F 41.9 °F 44.6 °F 93% 29.98 in 3.0 mi NW 9.2 mph - 0.00 in   Overcast
8:53 AM 46.9 °F - 44.1 °F 90% 30.01 in 5.0 mi NW 9.2 mph - 0.00 in   Overcast
9:53 AM 48.0 °F - 45.0 °F 89% 30.01 in 5.0 mi NW 11.5 mph - N/A   Overcast
10:28 AM 46.4 °F 40.4 °F 44.6 °F 93% 30.02 in 3.0 mi NNW 13.8 mph - N/A   Overcast
10:53 AM 46.9 °F - 44.1 °F 90% 30.04 in 9.0 mi NNW 12.7 mph 19.6 mph N/A   Overcast
11:03 AM 46.4 °F 40.4 °F 42.8 °F 87% 30.03 in 4.0 mi NNW 13.8 mph - N/A   Overcast
11:32 AM 46.4 °F 40.7 °F 42.8 °F 87% 30.04 in 2.0 mi NNW 12.7 mph - N/A   Overcast
11:43 AM 46.4 °F 40.7 °F 42.8 °F 87% 30.04 in 6.0 mi NNW 12.7 mph - N/A   Overcast
11:53 AM 46.0 °F 41.0 °F 42.1 °F 86% 30.04 in 9.0 mi North 10.4 mph - N/A   Overcast
12:53 PM 44.1 °F 37.4 °F 41.0 °F 89% 30.05 in 7.0 mi North 13.8 mph - N/A   Overcast
1:53 PM 44.1 °F 37.1 °F 39.9 °F 85% 30.05 in 7.0 mi North 15.0 mph - N/A   Overcast
2:53 PM 43.0 °F 36.4 °F 39.9 °F 89% 30.06 in 6.0 mi North 12.7 mph - 0.01 in   Overcast
3:53 PM 42.1 °F 35.7 °F 39.0 °F 89% 30.08 in 7.0 mi North 11.5 mph - N/A   Overcast
4:53 PM 42.1 °F 36.6 °F 39.0 °F 89% 30.10 in 6.0 mi North 9.2 mph - N/A   Overcast
5:53 PM 42.1 °F 35.7 °F 39.0 °F 89% 30.12 in 6.0 mi North 11.5 mph - N/A   Overcast
6:53 PM 42.1 °F 36.6 °F 39.0 °F 89% 30.13 in 6.0 mi North 9.2 mph - N/A   Overcast
7:48 PM 42.8 °F 37.5 °F 39.2 °F 87% 30.11 in 8.0 mi NNE 9.2 mph - N/A   Overcast
7:53 PM 42.1 °F 37.1 °F 39.0 °F 89% 30.12 in 8.0 mi North 8.1 mph - N/A   Overcast
8:08 PM 42.8 °F 38.0 °F 39.2 °F 87% 30.11 in 6.0 mi North 8.1 mph - N/A   Overcast
8:53 PM 42.1 °F 37.7 °F 39.0 °F 89% 30.12 in 7.0 mi NNE 6.9 mph - N/A   Overcast
9:53 PM 42.1 °F 39.2 °F 37.9 °F 85% 30.13 in 8.0 mi North 4.6 mph - N/A   Overcast
10:19 PM 42.8 °F 40.1 °F 37.4 °F 81% 30.12 in 10.0 mi NNW 4.6 mph - N/A   Overcast
10:53 PM 42.1 °F - 37.9 °F 85% 30.12 in 8.0 mi Calm Calm - N/A   Overcast
11:53 PM 41.0 °F 39.0 °F 37.9 °F 89% 30.12 in 9.0 mi NW 3.5 mph - N/A   Overcast